This is the latest recevied weather packets stored in our database for station/object AH6GR. If no packets are shown the sender has not sent any weather packets the latest 10 day(s).
| Time | Temp. | Humidity | Pressure | Rain* | Wind** | Luminosity | Snow |
|---|---|---|---|---|---|---|---|
| 1778278838 | 24.44° C | 76% | 1017.7 hPa | 0 mm | - | - | - |
| 1778278524 | 23.89° C | 79% | 1016.8 hPa | 0 mm | - | - | - |
| 1778278254 | 23.89° C | 78% | 1018 hPa | 0 mm | - | - | - |
| 1778277668 | 23.33° C | 78% | 1016.9 hPa | 0 mm | - | - | - |
| 1778277638 | 23.89° C | 78% | 1018 hPa | 0 mm | - | - | - |
| 1778277054 | 23.89° C | 78% | 1018.1 hPa | 0 mm | - | - | - |
| 1778276747 | 23.33° C | 76% | 1017.2 hPa | 0 mm | - | - | - |
| 1778276438 | 23.89° C | 77% | 1018.2 hPa | 0 mm | - | - | - |
| 1778275838 | 23.89° C | 74% | 1018.1 hPa | 0 mm | - | - | - |
| 1778275815 | 23.89° C | 74% | 1017.2 hPa | 0 mm | - | - | - |
| 1778275238 | 23.89° C | 74% | 1018.3 hPa | 0 mm | - | - | - |
| 1778274962 | 23.89° C | 72% | 1017.4 hPa | 0 mm | - | - | - |
| 1778274639 | 23.89° C | 78% | 1018.4 hPa | 0 mm | - | - | - |
| 1778274038 | 23.89° C | 75% | 1018.3 hPa | 0 mm | - | - | - |
| 1778274035 | 23.89° C | 76% | 1017.4 hPa | 0 mm | - | - | - |
| 1778273438 | 23.89° C | 77% | 1018.5 hPa | 0 mm | - | - | - |
| 1778273115 | 23.33° C | 76% | 1017.5 hPa | 0 mm | - | - | - |
| 1778272838 | 23.89° C | 76% | 1018.5 hPa | 0 mm | - | - | - |
| 1778272259 | 23.89° C | 77% | 1017.7 hPa | 0 mm | - | - | - |
| 1778272239 | 23.89° C | 77% | 1018.6 hPa | 0 mm | - | - | - |
| 1778271638 | 23.89° C | 77% | 1018.6 hPa | 0 mm | - | - | - |
| 1778271343 | 23.33° C | 77% | 1017.6 hPa | 0 mm | - | - | - |
| 1778271038 | 23.89° C | 75% | 1018.5 hPa | 0 mm | - | - | - |
| 1778270438 | 23.89° C | 75% | 1018.6 hPa | 0 mm | - | - | - |
| 1778270424 | 23.33° C | 75% | 1017.7 hPa | 0 mm | - | - | - |
* Rain latest hour (hover to see other rain measurements)
** Current wind speed in m/s (hover to see current wind gust speed)